Погода в Заеве

Россия / Тверская область     57°00′09″N   32°45′08″E
темп.,
°C
ветер,
м/с
пор.,
м/с
влажн.,
%
обл.,
%
осадки,
мм/ч
давл.,
гПа
погр.,
м
9 декабря, чт
чт900:00−16всв149861 0.0 102773
03:00−16св149860 0.0 102767
06:00−16всв259865 0.0 102793
09:00−16в249858 0.0 102873
12:00−12в25895 0.0 1029152
15:00−10всв25915 0.0 1028147
18:00−13в279625 0.0 1029121
21:00−15вюв289510 0.0 1030148
10 декабря, пт
пт1000:00−14вюв311925 0.0 1031215
03:00−14вюв311905 0.0 1031211
06:00−14вюв312885 0.0 1030246
09:00−13вюв415855 0.0 1030309
12:00−10вюв516783 0.0 1029377
15:00−8вюв5157597 0.0 1028412
18:00−7вюв51579100 0.0 1028451
21:00−6вюв51583100 0.0 1027442
11 декабря, сб
сб1100:00−6вюв51687100 0.0 1027486
03:00−5юв51690100 0.0 1027482
06:00−5юв51692100 0.0 1027454
09:00−4юв51691100 0.0 1027462
12:00−3юв5158998 0.0 1028442
15:00−3юв5138899 0.0 1028409
18:00−5юв4138999 0.0 1028364
21:00−6вюв51386100 0.0 1028368
12 декабря, вс
вс1200:00−6юв51589100 0.0 1028430
03:00−4юв51391100 0.0 1028400
06:00−3ююв41393100 0.0 1027426
09:00−2ююв31095100 0.0 1029317
12:000ююв31093100 0.0 1029363
15:00+1ююв31093100 0.0 1029374
18:00−1юв389698 0.0 1030245
21:00−3юв2798100 0.0 1030156
13 декабря, пн
пн1300:00−4юв2896100 0.0 1030179
03:00−4юв2696100 0.0 1029126
06:00−4юв2596100 0.0 102998
09:00−4юв1396100 0.0 102867
12:00−1ююв248871 0.0 1028142
15:000вюв128888 0.0 1027125
18:00−4вюв139698 0.0 102845
21:00−7вюв129762 0.0 102838